Location: Stuttgart
(48.7824°N, 9.1964°E)
Time: 13:26:04
(UTC+01:00)

ISS - Visible Passes

Search period start: 03 December 2022 00:00
Search period end: 13 December 2022 00:00
Orbit: 414 x 420 km, 51.6° (Epoch: 03 December)

Date Brightness Start Highest point End Pass type
(mag) Time Alt. Az. Time Alt. Az. Time Alt. Az.
03 Dec -3.7 17:51:43 10° WNW 17:55:04 80° SSW 17:57:24 18° ESE visible
03 Dec -0.8 19:29:06 10° W 19:30:21 16° WSW 19:30:21 16° WSW visible
04 Dec -3.8 17:03:35 10° WNW 17:06:57 78° NNE 17:10:17 10° ESE visible
04 Dec -1.8 18:40:37 10° W 18:43:29 26° SW 18:44:44 21° S visible
05 Dec -2.4 17:52:18 10° WNW 17:55:27 39° SSW 17:58:35 10° SE visible
06 Dec -3.1 17:04:03 10° WNW 17:07:21 58° SSW 17:10:39 10° SE visible
06 Dec -0.6 18:42:10 10° WSW 18:43:33 12° SW 18:44:54 10° SSW visible
07 Dec -0.9 17:53:10 10° W 17:55:35 18° SW 17:57:58 10° S visible
08 Dec -1.4 17:04:37 10° W 17:07:31 28° SW 17:10:25 10° SSE visible
10 Dec -0.3 17:05:53 10° WSW 17:07:26 13° SW 17:08:57 10° SSW visible
